Location: Unspecified
(0.0000°N, 0.0000°E)
Time: 11:14:58
(UTC+00:00)

A-11 Canister half - Pass Details

Date: 22 November 2019
Orbit: 1526 x 1683 km, 47.3° (Epoch: 13 December)

Event Time Altitude Azimuth Distance (km) Brightness Sun altitude
Rises 07:06:22 0° 211° (SSW) 4,888 11.5 18.8°
Reaches altitude 10° 07:09:36 10° 206° (SSW) 3,914 11.1 19.6°
Maximum altitude 07:19:27 57° 129° (SE) 1,918 10.6 21.9°
Drops below altitude 10° 07:29:18 10° 53° (NE) 3,931 11.7 24.1°
Sets 07:32:31 0° 49° (NE) 4,909 12.0 24.9°
